Weather History for Pueblo, CO

Change the Weather History Date:

Wednesday, July 31, 2013

  Actual Average Record
Temperature  
Mean Temperature 78 °F 76 °F  
Max Temperature 93 °F 92 °F 104 °F (2002)
Min Temperature 63 °F 59 °F 49 °F (2004)
Degree Days  
Heating Degree Days 0 0  
Month to date heating degree days 0 0  
Since 1 June heating degree days 17 26  
Since 1 July heating degree days 0 1  
Cooling Degree Days 13 11  
Month to date cooling degree days 363 336  
Year to date cooling degree days 739 545  
Since 1 June cooling degree days 666 511  
Growing Degree Days 28 (Base 50)    
Moisture  
Dew Point 53 °F    
Average Humidity 50    
Maximum Humidity 73    
Minimum Humidity 26    
Precipitation  
Precipitation 0.00 in 0.08 in 1.21 in (1933)
Month to date precipitation 1.68 2.06  
Year to date precipitation 3.88 7.91  
Snow  
Snow 0.00 in 0.00 in 0.00 in (2002)
Month to date snowfall 0.0 0.0  
Since 1 June snowfall T 0.0  
Since 1 July snowfall 0.0 0.0  
Snow Depth 0.00 in    
Sea Level Pressure  
Sea Level Pressure 30.04 in    
Wind  
Wind Speed 11 mph (East)    
Max Wind Speed 32 mph    
Max Gust Speed 37 mph    
Visibility 10 miles    
Events      
T = Trace of Precipitation, MM = Missing Value Source: NWS Daily Summary

Daily Weather History Graph

Daily Weather History Graph

Search for Another Location

Airport:

Trip Planner

Search our weather history database for the weather conditions in past years. The results will help you decide how hot, cold, wet, or windy it might be!

Date:

Astronomy

Jul. 31, 2013 Rise Set
Actual Time 5:59 AM MDT 8:08 PM MDT
Civil Twilight 5:30 AM MDT 8:37 PM MDT
Nautical Twilight 4:54 AM MDT 9:13 PM MDT
Astronomical Twilight 4:15 AM MDT 9:52 PM MDT
Moon 12:56 AM MDT (7/31) 3:26 PM MDT (7/31)
Length of Visible Light 15h 07m
Length of Day
14h 08m
Waning Crescent, 31% of the Moon is Illuminated
Jul 31
Waning Crescent
Aug 6
New
Aug 14
First Quarter
Aug 20
Full
Aug 28
Last Quarter

Hourly Weather History & Observations

Time (MDT) Temp. Heat Index Dew Point Humidity Pressure Visibility Wind Dir Wind Speed Gust Speed Precip Events Conditions
1:53 AM 71.1 °F - 48.9 °F 45% 30.04 in 10.0 mi NNW 3.5 mph - N/A   Clear
2:53 AM 66.0 °F - 48.9 °F 54% 30.05 in 10.0 mi WNW 5.8 mph - N/A   Clear
3:53 AM 64.9 °F - 50.0 °F 58% 30.04 in 10.0 mi WNW 3.5 mph - N/A   Clear
4:53 AM 64.9 °F - 50.0 °F 58% 30.05 in 10.0 mi NW 9.2 mph - N/A   Clear
5:53 AM 64.0 °F - 51.1 °F 63% 30.06 in 10.0 mi West 5.8 mph - N/A   Clear
6:53 AM 64.9 °F - 51.1 °F 61% 30.09 in 10.0 mi West 5.8 mph - N/A   Clear
7:53 AM 72.0 °F - 50.0 °F 46% 30.09 in 10.0 mi West 4.6 mph - N/A   Clear
8:53 AM 78.1 °F - 50.0 °F 37% 30.10 in 10.0 mi Calm Calm - N/A   Clear
9:53 AM 78.1 °F - 55.9 °F 46% 30.10 in 10.0 mi SE 6.9 mph - N/A   Clear
10:53 AM 81.0 °F 80.7 °F 55.0 °F 41% 30.09 in 10.0 mi South 5.8 mph - N/A   Clear
11:53 AM 86.0 °F - 52.0 °F 31% 30.06 in 10.0 mi SE 12.7 mph - N/A   Clear
12:53 PM 89.1 °F 86.7 °F 53.1 °F 29% 30.04 in 10.0 mi SE 12.7 mph 19.6 mph N/A   Clear
1:53 PM 89.1 °F 86.9 °F 54.0 °F 30% 30.01 in 10.0 mi SE 11.5 mph 19.6 mph N/A   Clear
2:53 PM 91.0 °F 88.5 °F 53.1 °F 27% 29.99 in 10.0 mi East 10.4 mph 16.1 mph N/A   Clear
3:53 PM 91.9 °F - 51.1 °F 25% 29.96 in 10.0 mi East 9.2 mph - N/A   Clear
4:18 PM 91.4 °F - 48.2 °F 23% 30.17 in 10.0 mi NNE 27.6 mph 33.4 mph N/A   Clear
4:53 PM 90.0 °F - 50.0 °F 25% 29.95 in 10.0 mi NE 26.5 mph 35.7 mph N/A   Clear
5:53 PM 88.0 °F - 51.1 °F 28% 29.95 in 10.0 mi East 24.2 mph 28.8 mph N/A   Clear
6:53 PM 81.0 °F 80.5 °F 54.0 °F 39% 29.98 in 10.0 mi SE 20.7 mph - N/A   Clear
7:53 PM 81.0 °F 80.5 °F 54.0 °F 39% 29.99 in 10.0 mi ESE 12.7 mph 21.9 mph N/A   Clear
8:53 PM 75.9 °F - 55.9 °F 50% 30.00 in 10.0 mi East 15.0 mph - N/A   Clear
9:53 PM 73.0 °F - 55.9 °F 55% 30.02 in 10.0 mi ESE 18.4 mph 28.8 mph N/A   Clear
10:53 PM 69.1 °F - 61.0 °F 75% 30.03 in 10.0 mi East 16.1 mph - N/A   Partly Cloudy
11:53 PM 68.0 °F - 59.0 °F 73% 30.04 in 10.0 mi NE 13.8 mph - N/A   Clear